2P/Encke
E C 2000 2010 08 06.5103 0.336152 0.848265 186.5242 334.5718 11.7843 11.5 15.0
8P/Tuttle
E C 2000 2008 01 26.7800 1.028098 0.819471 207.5121 270.3486 54.9708 8.0 20.0
9P/Tempel
E C 2000 2011 01 12.3465 1.509915 0.516732 178.9252 68.9190 10.5226 5.5 25.0
10P/Tempel
E C 2000 2010 07 04.9010 1.422778 0.536251 195.6532 117.8262 12.0225 5.0 25.0
14P/Wolf
E C 2000 2009 02 27.3705 2.724434 0.357832 159.0240 202.1176 27.9437 5.5 30.0
17P/Holmes
E C 2000 2007 05 05.0147 2.053357 0.432872 24.3499 326.8536 19.1145 10.0 15.0
22P/Kopff
E C 2000 2009 05 25.3704 1.577199 0.544352 162.7883 120.8888 4.7235 3.0 26.0
24P/Schaumasse
E C 2000 2009 08 09.6197 1.213888 0.703580 57.9951 79.7161 11.7293 6.5 35.0
29P/Schwassmann-Wachmann
E C 2000 2004 07 09.1482 5.718738 0.045138 48.7702 312.6345 9.3930 4.0 10.0
30P/Reinmuth
E C 2000 2010 04 19.5581 1.884062 0.500939 13.2123 119.7544 8.1224 9.5 15.0
31P/Schwassmann-Wachmann
E C 2000 2010 09 29.8687 3.424174 0.192420 17.9936 114.1900 4.5473 5.0 20.0
36P/Whipple
E C 2000 2011 12 31.3156 3.087407 0.258728 201.8816 182.3954 9.9358 8.5 15.0
37P/Forbes
E C 2000 2011 12 10.7874 1.573948 0.541252 329.3852 315.0488 8.9605 10.5 12.0
43P/Wolf-Harrington
E C 2000 2010 07 01.7166 1.357702 0.594627 191.4419 249.9078 15.9650 8.0 15.0
44P/Reinmuth
E C 2000 2008 02 18.5053 2.107590 0.428481 58.1605 286.6006 5.9030 8.3 15.0
47P/Ashbrook-Jackson
E C 2000 2009 02 01.1041 2.799463 0.319016 357.7233 356.9821 13.0530 1.0 28.0
49P/Arend-Rigaux
E C 2000 2011 10 19.0545 1.418772 0.601105 332.9242 118.9407 19.0872 11.3 11.0
54P/de Vico-Swift-NEAT
E C 2000 2009 11 28.4918 2.171998 0.426595 1.9061 358.8532 6.0685 10.0 15.0
59P/Kearns-Kwee
E C 2000 2009 03 07.6452 2.355394 0.475342 127.5261 313.0354 9.3405 7.0 15.0
61P/Shajn-Schaldach
E C 2000 2008 09 06.2315 2.108221 0.426850 221.6727 163.1087 6.0095 6.0 25.0
64P/Swift-Gehrels
E C 2000 2009 06 14.3689 1.377063 0.689664 96.3147 300.7432 8.9510 8.5 30.0
65P/Gunn
E C 2000 2010 03 02.1224 2.440370 0.319389 196.6319 68.3568 10.3865 5.0 15.0
67P/Churyumov-Gerasimenko
E C 2000 2009 02 28.3819 1.246286 0.640313 12.7019 50.1884 7.0413 11.0 10.0
68P/Klemola
E C 2000 2009 01 20.9726 1.759371 0.640416 153.9915 175.3268 11.1446 10.0 10.0
74P/Smirnova-Chernykh
E C 2000 2009 07 29.9266 3.557569 0.147450 87.1876 77.0919 6.6476 5.0 15.0
77P/Longmore
E C 2000 2009 07 07.8599 2.310389 0.357955 196.6995 14.9174 24.3990 7.0 20.0
81P/Wild
E C 2000 2010 02 22.7042 1.598052 0.537400 41.7948 136.0974 3.2374 7.0 15.0
82P/Gehrels
E C 2000 2010 01 12.0814 3.633375 0.122228 226.2674 239.5100 1.1261 5.0 20.0
88P/Howell
E C 2000 2009 10 12.4630 1.363448 0.562066 235.9600 56.7529 4.3817 11.0 15.0
89P/Russell
E C 2000 2009 08 17.1126 2.279762 0.399834 249.3256 42.3614 12.0321 11.5 15.0
94P/Russell
E C 2000 2010 03 29.7679 2.240250 0.363089 92.8489 70.9180 6.1823 9.0 15.0
97P/Metcalf-Brewington
E C 2000 2011 08 22.5545 2.588399 0.459569 228.6788 185.2536 17.8773 5.5 15.0
99P/Kowal
E C 2000 2007 01 28.6835 4.739022 0.229293 174.5096 28.2166 4.3323 4.5 15.0
100P/Hartley
E C 2000 2009 12 06.1485 1.982408 0.418600 181.7084 37.8449 25.6545 9.0 20.0
104P/Kowal
E C 2000 2010 05 04.6237 1.179682 0.638286 200.5426 235.5202 10.2678 12.5 10.0
116P/Wild
E C 2000 2009 07 18.8385 2.174943 0.374438 173.5826 21.0339 3.6130 2.5 25.0
117P/Helin-Roman-Alu
E C 2000 2005 12 20.8060 3.044608 0.255093 223.0283 58.9311 8.7015 2.5 20.0
118P/Shoemaker-Levy
E C 2000 2010 01 02.3110 1.983924 0.427348 302.1445 151.8072 8.5094 12.0 10.0
119P/Parker-Hartley
E C 2000 2014 04 03.5062 3.037362 0.290839 181.0851 244.0741 5.1920 3.5 20.0
123P/West-Hartley
E C 2000 2011 07 04.5452 2.130191 0.447866 102.7883 46.6017 15.3544 4.0 25.0
126P/IRAS
E C 2000 2010 02 22.6753 1.713392 0.696607 356.7343 357.7611 45.8294 6.0 20.0
127P/Holt-Olmstead
E C 2000 2009 10 21.3715 2.195719 0.362309 6.5425 13.6846 14.3218 11.0 15.0
128P/Shoemaker-Holt
E C 2000 2007 06 13.4842 3.064743 0.320546 210.3538 214.3648 4.3585 8.5 10.0
131P/Mueller
E C 2000 2012 01 08.0520 2.418612 0.342749 179.6394 214.2224 7.3548 11.0 10.0
136P/Mueller
E C 2000 2007 10 22.9726 2.961880 0.293540 225.0169 137.5519 9.4274 11.0 10.0
137P/Shoemaker-Levy
E C 2000 2009 05 13.6033 1.915448 0.574556 140.8308 233.1192 4.8534 11.0 10.0
139P/Vaisala-Oterma
E C 2000 2008 04 19.7475 3.402684 0.247264 165.5955 242.4255 2.3287 9.5 10.0
141P/Machholz
E C 2000 2010 05 29.7154 0.757705 0.749138 149.3454 246.0891 12.8038 12.0 30.0
142P/Ge-Wang
E C 2000 2010 05 30.7763 2.487715 0.499820 175.7984 176.5253 12.3029 8.5 15.0
143P/Kowal-Mrkos
E C 2000 2009 06 12.1977 2.538264 0.409605 320.7641 245.3670 4.6902 13.5 5.0
145P/Shoemaker-Levy
E C 2000 2009 03 26.6600 1.891468 0.542322 10.1635 26.8972 11.2990 13.5 10.0
149P/Mueller
E C 2000 2010 02 19.2176 2.650924 0.388534 43.7697 145.2659 29.7350 8.0 20.0
150P/LONEOS
E C 2000 2008 11 25.9496 1.768067 0.545578 245.6740 272.4280 18.4994 13.5 10.0
152P/Helin-Lawrence
E C 2000 2012 07 09.4754 3.112708 0.308032 163.9090 91.9528 9.8689 11.5 10.0
157P/Tritton
E C 2000 2010 02 20.5347 1.360164 0.601074 148.7460 300.1078 7.2775 10.0 10.0
158P/Kowal-LINEAR
E C 2000 2012 09 15.4832 4.580351 0.029450 231.5503 137.3089 7.9085 9.0 10.0
162P/Siding Spring
E C 2000 2010 03 08.4217 1.233063 0.596119 356.3052 31.2412 27.8159 12.0 10.0
164P/Christensen
E C 2000 2011 06 02.5373 1.673924 0.541333 325.9236 88.3628 16.2666 11.0 10.0
166P/NEAT
E C 2000 2002 05 15.8310 8.545933 0.382443 321.5725 64.4283 15.3682 5.5 10.0
167P/CINEOS
E C 2000 2001 05 17.8567 11.821981 0.273604 344.7716 295.7768 19.0897 9.5 5.0
169P/NEAT
E C 2000 2009 11 30.3045 0.607747 0.766797 217.9614 176.1885 11.2999 16.0 5.0
172P/Yeung
E C 2000 2008 10 13.7322 2.241936 0.362978 179.3842 39.9408 11.5188 13.0 10.0
173P/Mueller
E C 2000 2008 05 16.9608 4.212603 0.260768 29.6554 100.5442 16.4937 7.5 10.0
174P/Echeclus
E C 2000 2015 04 18.7378 5.826575 0.458018 162.6014 173.3902 4.3410 9.5 5.0
176P/LINEAR
E C 2000 2011 07 02.6532 2.575169 0.193455 35.9710 346.5055 0.2378 15.0 5.0
179P/Jedicke
E C 2000 2007 12 03.2501 4.086275 0.308873 295.4755 115.8466 19.8716 2.5 20.0
180P/NEAT
E C 2000 2008 05 27.0513 2.471904 0.357238 95.0969 84.7409 16.9036 11.0 10.0
183P/Korlevic-Juric
E C 2000 2008 05 07.2976 3.893296 0.134922 161.4384 5.8488 18.7369 12.5 5.0
186P/Garradd
E C 2000 2008 04 22.9447 4.279584 0.125987 282.6454 327.7730 28.8684 7.5 10.0
187P/LINEAR
E C 2000 2008 10 10.9079 3.695969 0.172528 132.6223 111.9998 13.7197 9.0 10.0
195P/Hill
E C 2000 2009 01 20.6605 4.438228 0.314778 249.5837 243.2270 36.3621 8.5 10.0
199P/Shoemaker
E C 2000 2009 04 09.5981 2.934523 0.508860 191.9153 92.8785 24.7359 10.0 10.0
200P/Larsen
E C 2000 2008 08 25.6681 3.272834 0.333581 133.8235 234.8143 12.1181 9.0 10.0
202P/Scotti
E C 2000 2009 02 06.9677 2.526771 0.331034 255.5499 194.5665 2.1852 13.5 10.0
203P/Korlevic
E C 2000 2010 02 08.1941 3.182125 0.315069 154.5441 290.5643 2.9759 14.5 5.0
211P/Hill
E C 2000 2009 05 07.6857 2.361882 0.337661 4.3694 117.2929 18.8712 12.5 10.0
213P/Van Ness
E C 2000 2011 06 15.9957 2.123421 0.379743 3.2302 312.6870 10.2397 10.5 10.0
215P/NEAT
E C 2000 2010 06 07.8888 3.213460 0.200867 222.4199 75.4441 12.7911 11.0 10.0
217P/LINEAR
E C 2000 2009 09 08.9694 1.224011 0.689552 246.7486 125.6211 12.8815 12.0 10.0
219P/LINEAR
E C 2000 2010 03 05.8345 2.364293 0.353187 107.7758 231.0714 11.5201 11.0 10.0
220P/McNaught
E C 2000 2009 12 15.4321 1.548625 0.502681 180.7575 150.1181 8.1327 15.0 10.0
223P/Skiff
E C 2000 2010 08 14.7247 2.419237 0.417609 37.9245 346.8278 27.0542 12.0 10.0
224P/LINEAR-NEAT
E C 2000 2010 01 31.8300 1.989595 0.416379 16.0912 40.5285 13.4361 15.5 10.0
226P/Pigott-LINEAR-Kowalski
E C 2000 2009 05 11.2515 1.769207 0.529986 340.9630 54.0678 44.0212 12.5 10.0
227P/Catalina-LINEAR
E C 2000 2010 09 03.7223 1.794826 0.499869 90.1393 49.8858 6.5248 16.5 5.0
228P/LINEAR
E C 2000 2011 08 24.6821 3.430204 0.176412 114.9119 31.0709 7.9160 14.5 5.0
229P/Gibbs
E C 2000 2009 08 04.2214 2.440269 0.377926 224.0181 157.9802 26.1104 13.0 10.0
230P/LINEAR
E C 2000 2009 08 08.8333 1.485982 0.562902 308.7323 112.5092 14.6426 13.0 10.0
231P/LINEAR-NEAT
E C 2000 2011 05 17.3211 3.031875 0.246208 42.6041 133.0993 12.3289 14.5 5.0
232P/Hill
E C 2000 2009 10 01.4918 2.983174 0.334668 53.4226 56.1415 14.6344 11.5 10.0
C/1995 O1 (Hale-Bopp)
E C 2000 1997 03 31.3492 0.908752 0.994949 130.5577 282.7984 89.2741 -2.0 10.0
P/1996 R2 (Lagerkvist)
E C 2000 2011 10 17.4743 2.612739 0.309537 334.0522 40.1905 2.6040 11.5 10.0
P/1998 U3 (Jager)
E C 2000 2014 03 17.5524 2.154515 0.646988 180.9435 303.4905 19.0736 6.5 10.0
P/1998 U4 (Spahr)
E C 2000 2012 04 20.3651 3.851770 0.311812 251.6693 181.3875 31.6530 8.0 10.0
P/1998 VS24 (LINEAR)
E C 2000 2008 05 25.1718 3.422699 0.242896 244.4575 159.1698 5.0267 13.0 5.0
P/1999 U3 (LINEAR)
E C 2000 2010 07 18.4616 1.921420 0.611471 110.1262 305.9864 20.8867 13.5 10.0
P/1999 XB69 (LINEAR)
E C 2000 2009 07 25.8987 1.652056 0.630821 220.3234 256.0484 11.3058 17.5 5.0
P/1999 XN120 (Catalina)
E C 2000 2008 11 12.3926 3.303667 0.211209 161.5865 285.4414 5.0250 13.5 5.0
P/2000 Y3 (Scotti)
E C 2000 2012 01 06.1385 3.935693 0.204279 90.3891 354.3342 2.2676 9.0 10.0
P/2001 R6 (LINEAR-Skiff)
E C 2000 2010 03 26.1195 2.178615 0.477875 308.4436 67.3328 17.3853 13.0 10.0
P/2002 Q1 (Van Ness)
E C 2000 2009 03 20.9758 1.551434 0.563929 185.0407 173.9937 36.2802 13.0 10.0
C/2002 VQ94 (LINEAR)
E C 2000 2006 02 06.2494 6.796477 0.963844 100.0490 34.9913 70.5828 9.5 5.0
P/2002 X2 (NEAT)
E C 2000 2010 10 04.7463 2.127361 0.449987 351.7898 75.0111 23.5326 12.0 10.0
P/2003 HT15 (LINEAR)
E C 2000 2013 03 17.9550 2.688217 0.418040 124.2324 81.4461 27.6479 14.0 5.0
P/2003 S2 (NEAT)
E C 2000 2011 03 04.1713 2.455233 0.359086 284.0283 87.7518 7.6372 12.5 10.0
P/2003 UY275 (LINEAR)
E C 2000 2010 09 09.5825 1.830950 0.508972 119.3539 245.6878 16.3327 14.0 10.0
C/2003 WT42 (LINEAR)
E C 2000 2006 04 09.5856 5.187108 0.999085 92.3961 48.4378 31.4442 11.5 5.0
P/2004 A1 (LONEOS)
